Weather History for KOXC - November, 2011

Change the Weather History Date:

Monday, November 7, 2011

  Actual Average Record
Temperature  
Mean Temperature 50 °F -  
Max Temperature 62 °F 49 °F 64 °F (2004)
Min Temperature 37 °F 33 °F 23 °F (1998)
Degree Days  
Heating Degree Days 16    
Moisture  
Dew Point 37 °F    
Average Humidity 75    
Maximum Humidity 93    
Minimum Humidity 34    
Precipitation  
Precipitation 0.00 in - - ()
Sea Level Pressure  
Sea Level Pressure 30.32 in    
Wind  
Wind Speed 3 mph (WSW)    
Max Wind Speed 6 mph    
Max Gust Speed -    
Visibility 10 miles    
Events      
Averages and records for this station are not official NWS values.
T = Trace of Precipitation, MM = Missing Value Source: NWS Daily Summary

Daily Weather History Graph

Daily Weather History Graph

Search for Another Location

Airport or City:

Trip Planner

Search our weather history database for the weather conditions in past years. The results will help you decide how hot, cold, wet, or windy it might be!

Date:

Astronomy

Nov. 07, 2011 Rise Set
Actual Time 6:31 AM EST 4:40 PM EST
Civil Twilight 6:01 AM EST 5:09 PM EST
Nautical Twilight 5:28 AM EST 5:42 PM EST
Astronomical Twilight 4:56 AM EST 6:15 PM EST
Moon 2:51 PM EST (11/7) 3:29 AM EST (11/7)
Length of Visible Light 11h 07m
Length of Day
10h 09m
Waxing Gibbous, 91% of the Moon is Illuminated
Nov 7
Waxing Gibbous
Nov 10
Full
Nov 18
Last Quarter
Nov 25
New
Dec 2
First Quarter

Hourly Weather History & Observations

Time (EST) Temp. Windchill Dew Point Humidity Pressure Visibility Wind Dir Wind Speed Gust Speed Precip Events Conditions
12:15 AM 39.2 °F 35.9 °F 35.6 °F 87% 30.37 in 10.0 mi WSW 4.6 mph - N/A   Clear
12:35 AM 39.2 °F 37.0 °F 35.6 °F 87% 30.37 in 10.0 mi SW 3.5 mph - N/A   Clear
12:55 AM 39.2 °F 37.0 °F 35.6 °F 87% 30.37 in 10.0 mi SW 3.5 mph - N/A   Clear
1:15 AM 39.2 °F 35.9 °F 35.6 °F 87% 30.37 in 10.0 mi SW 4.6 mph - N/A   Clear
1:55 AM 39.2 °F - 35.6 °F 87% 30.35 in 10.0 mi Calm Calm - N/A   Clear
2:15 AM 39.2 °F 37.0 °F 33.8 °F 81% 30.35 in 10.0 mi SW 3.5 mph - N/A   Clear
2:35 AM 37.4 °F 32.8 °F 33.8 °F 87% 30.34 in 10.0 mi SW 5.8 mph - N/A   Clear
2:55 AM 39.2 °F 35.0 °F 33.8 °F 81% 30.34 in 10.0 mi SW 5.8 mph - N/A   Clear
3:15 AM 39.2 °F 35.9 °F 35.6 °F 87% 30.34 in 10.0 mi SW 4.6 mph - N/A   Clear
3:35 AM 37.4 °F 32.8 °F 33.8 °F 87% 30.34 in 10.0 mi WSW 5.8 mph - N/A   Clear
3:55 AM 37.4 °F 34.9 °F 35.6 °F 93% 30.34 in 10.0 mi West 3.5 mph - N/A   Clear
4:35 AM 37.4 °F 34.9 °F 35.6 °F 93% 30.34 in 10.0 mi WSW 3.5 mph - N/A   Clear
4:55 AM 37.4 °F 34.9 °F 35.6 °F 93% 30.34 in 10.0 mi West 3.5 mph - N/A   Clear
5:15 AM 37.4 °F - 33.8 °F 87% 30.33 in 10.0 mi Calm Calm - N/A   Clear
5:35 AM 37.4 °F 34.9 °F 35.6 °F 93% 30.33 in 10.0 mi WSW 3.5 mph - N/A   Clear
5:55 AM 37.4 °F - 35.6 °F 93% 30.33 in 10.0 mi Calm Calm - N/A   Clear
6:45 AM 37.4 °F 33.8 °F 35.6 °F 93% 30.34 in 10.0 mi WNW 4.6 mph - N/A   Clear
7:45 AM 39.2 °F 35.9 °F 37.4 °F 93% 30.35 in 10.0 mi West 4.6 mph - N/A   Clear
8:45 AM 44.6 °F 42.2 °F 37.4 °F 76% 30.34 in 10.0 mi West 4.6 mph - N/A   Clear
9:45 AM 48.2 °F - 39.2 °F 71% 30.33 in 10.0 mi West 3.5 mph - N/A   Clear
10:45 AM 51.8 °F - 37.4 °F 58% 30.32 in 10.0 mi West 4.6 mph - N/A   Clear
11:45 AM 55.4 °F - 37.4 °F 51% 30.30 in 10.0 mi SSW 5.8 mph - N/A   Clear
12:45 PM 59.0 °F - 35.6 °F 42% 30.29 in 10.0 mi West 3.5 mph - N/A   Clear
1:45 PM 60.8 °F - 35.6 °F 39% 30.27 in 10.0 mi West 4.6 mph - N/A   Clear
2:45 PM 62.6 °F - 33.8 °F 34% 30.25 in 10.0 mi SW 4.6 mph - N/A   Clear
4:45 PM 59.0 °F - 32.0 °F 36% 30.26 in 10.0 mi Calm Calm - N/A   Clear
5:45 PM 53.6 °F - 37.4 °F 54% 30.26 in 10.0 mi Calm Calm - N/A   Clear
6:45 PM 51.8 °F - 39.2 °F 62% 30.27 in 10.0 mi Calm Calm - N/A   Clear
7:45 PM 51.8 °F - 41.0 °F 67% 30.27 in 10.0 mi Calm Calm - N/A   Clear
9:15 PM 50.0 °F - 41.0 °F 71% 30.28 in 10.0 mi Calm Calm - N/A   Clear
9:35 PM 48.2 °F - 41.0 °F 76% 30.27 in 10.0 mi Calm Calm - N/A   Clear
10:55 PM 51.8 °F - 41.0 °F 67% 30.27 in 10.0 mi West 3.5 mph - N/A   Clear
11:15 PM 51.8 °F - 41.0 °F 67% 30.27 in 10.0 mi WNW 3.5 mph - N/A   Clear
11:35 PM 50.0 °F - 39.2 °F 66% 30.27 in 10.0 mi Calm Calm - N/A   Clear